Weather History for KEST - October, 2013

Change the Weather History Date:

Tuesday, October 1, 2013

  Actual Average Record
Temperature  
Mean Temperature 62 °F 54 °F  
Max Temperature 79 °F 67 °F 89 °F (1951)
Min Temperature 44 °F 42 °F 24 °F (2003)
Degree Days  
Heating Degree Days 3 11  
Month to date heating degree days 3 11  
Since 1 July heating degree days 151 219  
Cooling Degree Days 0 1  
Month to date cooling degree days 0 1  
Year to date cooling degree days 712 588  
Growing Degree Days 12 (Base 50)    
Moisture  
Dew Point 41 °F    
Average Humidity 44    
Maximum Humidity 72    
Minimum Humidity 16    
Precipitation  
Precipitation 0.00 in 0.11 in 0.77 in (1982)
Month to date precipitation 0.00 0.11  
Sea Level Pressure  
Sea Level Pressure 29.86 in    
Wind  
Wind Speed 8 mph (WNW)    
Max Wind Speed 20 mph    
Max Gust Speed 28 mph    
Visibility 10 miles    
Events      
T = Trace of Precipitation, MM = Missing Value Source: NWS Daily Summary

Daily Weather History Graph

Daily Weather History Graph

Search for Another Location

Airport or City:

Trip Planner

Search our weather history database for the weather conditions in past years. The results will help you decide how hot, cold, wet, or windy it might be!

Date:

Astronomy

Oct. 01, 2013 Rise Set
Actual Time 7:16 AM CDT 6:59 PM CDT
Civil Twilight 6:48 AM CDT 7:28 PM CDT
Nautical Twilight 6:15 AM CDT 8:01 PM CDT
Astronomical Twilight 5:41 AM CDT 8:34 PM CDT
Moon 3:46 AM CDT (10/1) 5:07 PM CDT (10/1)
Length of Visible Light 12h 39m
Length of Day
11h 42m
Waning Crescent, 12% of the Moon is Illuminated
Oct 1
Waning Crescent
Oct 4
New
Oct 11
First Quarter
Oct 18
Full
Oct 26
Last Quarter

Hourly Weather History & Observations

Time (CDT) Temp. Dew Point Humidity Pressure Visibility Wind Dir Wind Speed Gust Speed Precip Events Conditions
12:52 AM 63.0 °F 51.1 °F 65% 29.66 in 10.0 mi South 12.7 mph - N/A   Clear
1:52 AM 64.0 °F 51.1 °F 63% 29.66 in 10.0 mi South 12.7 mph 20.7 mph N/A   Clear
2:52 AM 64.0 °F 52.0 °F 65% 29.68 in 10.0 mi SSW 13.8 mph 20.7 mph N/A   Clear
3:52 AM 64.9 °F 52.0 °F 63% 29.67 in 10.0 mi SW 16.1 mph 26.5 mph N/A   Clear
4:52 AM 64.9 °F 53.1 °F 65% 29.69 in 10.0 mi SW 15.0 mph 25.3 mph N/A   Clear
5:52 AM 63.0 °F 53.1 °F 70% 29.73 in 10.0 mi WSW 11.5 mph - N/A   Clear
6:52 AM 60.1 °F 52.0 °F 75% 29.78 in 10.0 mi West 5.8 mph - N/A   Clear
7:52 AM 60.1 °F 50.0 °F 69% 29.83 in 10.0 mi NW 5.8 mph - N/A   Clear
8:52 AM 62.1 °F 48.0 °F 60% 29.85 in 10.0 mi NNW 10.4 mph - N/A   Clear
9:52 AM 62.1 °F 46.0 °F 56% 29.89 in 10.0 mi NNW 8.1 mph - N/A   Clear
10:52 AM 71.1 °F 39.9 °F 32% 29.90 in 10.0 mi North 15.0 mph - N/A   Clear
11:52 AM 73.9 °F 35.1 °F 24% 29.91 in 10.0 mi NNW 9.2 mph 16.1 mph N/A   Clear
12:52 PM 75.9 °F 33.1 °F 21% 29.91 in 10.0 mi NNW 8.1 mph - N/A   Clear
1:52 PM 77.0 °F 30.9 °F 19% 29.92 in 10.0 mi NNW 12.7 mph 16.1 mph N/A   Clear
2:52 PM 77.0 °F 30.9 °F 19% 29.92 in 10.0 mi NW 9.2 mph - N/A   Clear
3:52 PM 79.0 °F 28.9 °F 16% 29.92 in 10.0 mi WNW 11.5 mph - N/A   Clear
4:52 PM 78.1 °F 30.0 °F 17% 29.92 in 10.0 mi WNW 5.8 mph - N/A   Clear
5:52 PM 77.0 °F 28.0 °F 17% 29.93 in 10.0 mi NNW 6.9 mph - N/A   Clear
6:52 PM 64.9 °F 35.1 °F 33% 29.94 in 10.0 mi Calm Calm - N/A   Clear
7:52 PM 55.0 °F 36.0 °F 49% 29.97 in 10.0 mi Calm Calm - N/A   Clear
8:52 PM 53.1 °F 36.0 °F 52% 29.98 in 10.0 mi Calm Calm - N/A   Clear
9:52 PM 48.9 °F 37.0 °F 64% 30.00 in 10.0 mi Calm Calm - N/A   Clear
10:52 PM 46.9 °F 37.0 °F 68% 30.01 in 10.0 mi Calm Calm - N/A   Clear
11:52 PM 46.9 °F 37.0 °F 68% 30.01 in 10.0 mi NW 3.5 mph - N/A   Clear